Location: Alta
(39.2070°N, 120.8111°W)
Time: 04:04:11
(UTC+00:00)

NANOSAT C BR1 - Visible Passes

Search period start: 29 March 2023 00:00
Search period end: 08 April 2023 00:00
Orbit: 576 x 590 km, 98.0° (Epoch: 28 March)

Date Brightness Start Highest point End Pass type
(mag) Time Alt. Az. Time Alt. Az. Time Alt. Az.
29 Mar ? 10:48:14 10° N 10:48:57 15° N 10:48:57 15° N visible
30 Mar ? 10:54:07 10° N 10:55:01 16° N 10:55:01 16° N visible
31 Mar ? 11:00:01 10° N 11:01:03 17° N 11:01:03 17° N visible
01 Apr ? 11:05:53 10° N 11:07:05 18° N 11:07:05 18° N visible
02 Apr ? 11:11:45 10° N 11:13:05 19° N 11:13:05 19° N visible
03 Apr ? 11:17:38 10° N 11:19:04 20° NNW 11:19:04 20° NNW visible
04 Apr ? 11:23:30 10° N 11:25:02 20° NNW 11:25:02 20° NNW visible
05 Apr ? 09:54:27 10° NE 09:54:35 11° NE 09:54:35 11° NE visible
05 Apr ? 11:29:22 10° N 11:30:59 20° NNW 11:30:59 20° NNW visible
06 Apr ? 10:00:01 10° NE 10:00:30 12° NE 10:00:30 12° NE visible
06 Apr ? 11:35:15 10° NNW 11:36:54 19° NNW 11:36:54 19° NNW visible
07 Apr ? 10:05:34 10° NE 10:06:25 15° NE 10:06:25 15° NE visible
07 Apr ? 11:41:08 10° NNW 11:42:49 18° NW 11:42:49 18° NW visible
